,,PA_Meas_PMT16A,,PR_Meas_QMR101_102,,RH_Meas_QMH101,,SR_Meas_QMS101,,TA_Meas_QMH101,,GenWind,,GenWind,
time,status,PA,status,PR,status,RH,status,SR,status,TA,status,DirAvg,status,SpdAvg,
2009-12-15, 00:00:04,VALID,919.677,VALID,0,VALID,97.0537,VALID,0,VALID,19.3503,VALID,32,VALID,0.947266,
2009-12-15, 00:01:04,VALID,919.656,VALID,0,VALID,97.0842,VALID,0,VALID,19.3698,VALID,32,VALID,0.54375,
2009-12-15, 00:02:04,VALID,919.685,VALID,0,VALID,97.0842,VALID,0,VALID,19.3503,VALID,31,VALID,0.516016,
2009-12-15, 00:03:04,VALID,919.695,VALID,0,VALID,97.0842,VALID,0,VALID,19.3489,VALID,31,VALID,0.442969,
2009-12-15, 00:04:04,VALID,919.699,VALID,0,VALID,97.0613,VALID,0,VALID,19.3503,VALID,32,VALID,0.844141,
2009-12-15, 00:05:04,VALID,919.735,VALID,0.2,VALID,97.0537,VALID,0,VALID,19.3503,VALID,32,VALID,0.773047,
2009-12-15, 00:06:04,VALID,919.736,VALID,0,VALID,97.0918,VALID,0,VALID,19.3503,VALID,32,VALID,0.890625,
2009-12-15, 00:07:04,VALID,919.752,VALID,0,VALID,97.0232,VALID,0,VALID,19.3308,VALID,32,VALID,0.712891,
2009-12-15, 00:08:04,VALID,919.781,VALID,0,VALID,97.008,VALID,0,VALID,19.3099,VALID,32,VALID,0.899609,
2009-12-15, 00:09:04,VALID,919.776,VALID,0,VALID,97.0232,VALID,0,VALID,19.3113,VALID,32,VALID,0.769531,
2009-12-15, 00:10:04,VALID,919.749,VALID,0,VALID,97.0308,VALID,0,VALID,19.3308,VALID,32,VALID,0.495703,
2009-12-15, 00:11:04,VALID,919.797,VALID,0,VALID,97.0156,VALID,0,VALID,19.3113,VALID,32,VALID,0.611719,
2009-12-15, 00:12:04,VALID,919.799,VALID,0.2,VALID,97.0308,VALID,0,VALID,19.3308,VALID,32,VALID,0.532812,
2009-12-15, 00:13:04,VALID,919.773,VALID,0,VALID,96.9698,VALID,0,VALID,19.3113,VALID,32,VALID,0.711719,
2009-12-15, 00:14:04,VALID,919.77,VALID,0,VALID,96.9851,VALID,0,VALID,19.2918,VALID,32,VALID,0.715234,
2009-12-15, 00:15:04,VALID,919.806,VALID,0,VALID,97.008,VALID,0,VALID,19.2709,VALID,32,VALID,0.633203,
2009-12-15, 00:16:04,VALID,919.79,VALID,0,VALID,97.0232,VALID,0,VALID,19.2904,VALID,32,VALID,0.706641,
2009-12-15, 00:17:04,VALID,919.807,VALID,0,VALID,96.9698,VALID,0.107441,VALID,19.2709,VALID,32,VALID,0.83125,
2009-12-15, 00:18:04,VALID,919.79,VALID,0,VALID,97.0156,VALID,0.107441,VALID,19.2709,VALID,32,VALID,0.507422,
2009-12-15, 00:19:04,VALID,919.799,VALID,0.2,VALID,97.0156,VALID,0,VALID,19.2514,VALID,32,VALID,0.750781,
2009-12-15, 00:20:04,VALID,919.785,VALID,0,VALID,96.9851,VALID,0,VALID,19.2319,VALID,32,VALID,0.699609,
2009-12-15, 00:21:04,VALID,919.779,VALID,0,VALID,97.0461,VALID,0,VALID,19.2514,VALID,32,VALID,0.726563,
2009-12-15, 00:22:04,VALID,919.803,VALID,0,VALID,97.1147,VALID,0,VALID,19.2514,VALID,32,VALID,0.6125,
2009-12-15, 00:23:04,VALID,919.798,VALID,0,VALID,97.1299,VALID,0.107441,VALID,19.2709,VALID,32,VALID,0.505078,
2009-12-15, 00:24:04,VALID,919.807,VALID,0,VALID,97.0461,VALID,0,VALID,19.2514,VALID,32,VALID,0.801953,
2009-12-15, 00:25:04,VALID,919.799,VALID,0,VALID,97.0156,VALID,0,VALID,19.2319,VALID,32,VALID,0.591797,
2009-12-15, 00:26:04,VALID,919.801,VALID,0,VALID,97.0613,VALID,0,VALID,19.2319,VALID,32,VALID,0.657812,
2009-12-15, 00:27:04,VALID,919.828,VALID,0.2,VALID,97.069,VALID,0.107441,VALID,19.2109,VALID,32,VALID,0.597266,
2009-12-15, 00:28:04,VALID,919.852,VALID,0,VALID,97.1071,VALID,0,VALID,19.2109,VALID,32,VALID,0.482422,
2009-12-15, 00:29:04,VALID,919.798,VALID,0,VALID,97.0918,VALID,0,VALID,19.2124,VALID,32,VALID,0.484766,
2009-12-15, 00:30:04,VALID,919.823,VALID,0,VALID,97.0918,VALID,0,VALID,19.2124,VALID,32,VALID,0.710156,
2009-12-15, 00:31:04,VALID,919.818,VALID,0,VALID,97.1376,VALID,0,VALID,19.2139,VALID,31,VALID,0.768359,
2009-12-15, 00:32:04,VALID,919.838,VALID,0,VALID,97.1681,VALID,0,VALID,19.2334,VALID,31,VALID,0.559766,
2009-12-15, 00:33:04,VALID,919.801,VALID,0,VALID,97.1604,VALID,0,VALID,19.2334,VALID,31,VALID,0.557813,
2009-12-15, 00:34:04,VALID,919.799,VALID,0,VALID,97.1909,VALID,0,VALID,19.2139,VALID,31,VALID,0.244141,
2009-12-15, 00:35:04,VALID,919.81,VALID,0,VALID,97.2367,VALID,0,VALID,19.2528,VALID,31,VALID,0,
2009-12-15, 00:36:04,VALID,919.781,VALID,0,VALID,97.2595,VALID,0,VALID,19.2723,VALID,31,VALID,0.0167969,
2009-12-15, 00:37:04,VALID,919.792,VALID,0,VALID,97.2519,VALID,0,VALID,19.2723,VALID,31,VALID,0.065625,
2009-12-15, 00:38:04,VALID,919.784,VALID,0,VALID,97.2443,VALID,0,VALID,19.2723,VALID,31,VALID,0.195703,
2009-12-15, 00:39:04,VALID,919.73,VALID,0,VALID,97.2443,VALID,0,VALID,19.2723,VALID,31,VALID,0.0425781,
2009-12-15, 00:40:04,VALID,919.756,VALID,0.2,VALID,97.2595,VALID,0,VALID,19.2528,VALID,31,VALID,0,
2009-12-15, 00:41:04,VALID,919.717,VALID,0,VALID,97.2672,VALID,0,VALID,19.2723,VALID,31,VALID,0,
2009-12-15, 00:42:04,VALID,919.754,VALID,0,VALID,97.2672,VALID,0,VALID,19.2528,VALID,31,VALID,0,
2009-12-15, 00:43:04,VALID,919.718,VALID,0,VALID,97.2977,VALID,0,VALID,19.2528,VALID,31,VALID,0,
2009-12-15, 00:44:04,VALID,919.711,VALID,0,VALID,97.2824,VALID,0,VALID,19.2528,VALID,31,VALID,0,
2009-12-15, 00:45:04,VALID,919.699,VALID,0,VALID,97.3053,VALID,0,VALID,19.2528,VALID,31,VALID,0,
2009-12-15, 00:46:04,VALID,919.722,VALID,0,VALID,97.3205,VALID,0,VALID,19.2528,VALID,31,VALID,0,
2009-12-15, 00:47:04,VALID,919.686,VALID,0,VALID,97.3281,VALID,0,VALID,19.2918,VALID,31,VALID,0.359766,
2009-12-15, 00:48:04,VALID,919.676,VALID,0,VALID,97.3739,VALID,0,VALID,19.3113,VALID,31,VALID,0.361719,
2009-12-15, 00:49:04,VALID,919.677,VALID,0,VALID,97.3358,VALID,0,VALID,19.2918,VALID,31,VALID,0.482812,
2009-12-15, 00:50:04,VALID,919.698,VALID,0,VALID,97.3739,VALID,0,VALID,19.2918,VALID,31,VALID,0.36875,
2009-12-15, 00:51:04,VALID,919.656,VALID,0,VALID,97.3586,VALID,0,VALID,19.3128,VALID,31,VALID,0.582422,
2009-12-15, 00:52:04,VALID,919.659,VALID,0,VALID,97.3205,VALID,0,VALID,19.2918,VALID,31,VALID,0.319141,
2009-12-15, 00:53:04,VALID,919.639,VALID,0,VALID,97.351,VALID,0,VALID,19.2918,VALID,31,VALID,0.326562,
2009-12-15, 00:54:04,VALID,919.667,VALID,0,VALID,97.3663,VALID,0,VALID,19.2918,VALID,31,VALID,0.413281,
2009-12-15, 00:55:04,VALID,919.641,VALID,0,VALID,97.3739,VALID,0,VALID,19.3113,VALID,31,VALID,0.0554687,
2009-12-15, 00:56:04,VALID,919.631,VALID,0,VALID,97.3891,VALID,0,VALID,19.3113,VALID,31,VALID,0.231641,
2009-12-15, 00:57:04,VALID,919.644,VALID,0,VALID,97.3663,VALID,0,VALID,19.2918,VALID,31,VALID,0.628906,
2009-12-15, 00:58:04,VALID,919.633,VALID,0,VALID,97.3663,VALID,0,VALID,19.3113,VALID,31,VALID,0.196484,
2009-12-15, 00:59:04,VALID,919.616,VALID,0,VALID,97.3663,VALID,0,VALID,19.2918,VALID,31,VALID,0.0109375,
2009-12-15, 01:00:04,VALID,919.593,VALID,0,VALID,97.3663,VALID,0,VALID,19.3113,VALID,31,VALID,0.571484,
2009-12-15, 01:01:04,VALID,919.61,VALID,0,VALID,97.3739,VALID,0,VALID,19.2918,VALID,31,VALID,0.350781,
2009-12-15, 01:02:04,VALID,919.571,VALID,0,VALID,97.3968,VALID,0,VALID,19.3113,VALID,31,VALID,0.341797,
2009-12-15, 01:03:04,VALID,919.598,VALID,0,VALID,97.3891,VALID,0,VALID,19.2723,VALID,31,VALID,0.3375,
2009-12-15, 01:04:04,VALID,919.564,VALID,0,VALID,97.3891,VALID,0,VALID,19.2709,VALID,31,VALID,0.254297,
2009-12-15, 01:05:04,VALID,919.539,VALID,0,VALID,97.3891,VALID,0,VALID,19.2514,VALID,31,VALID,0.151562,
2009-12-15, 01:06:04,VALID,919.536,VALID,0,VALID,97.3739,VALID,0,VALID,19.2723,VALID,31,VALID,0.482422,
2009-12-15, 01:07:04,VALID,919.525,VALID,0,VALID,97.412,VALID,0,VALID,19.2723,VALID,31,VALID,0.191797,
2009-12-15, 01:08:04,VALID,919.499,VALID,0,VALID,97.4425,VALID,0,VALID,19.3113,VALID,31,VALID,0,
2009-12-15, 01:09:04,VALID,919.467,VALID,0,VALID,97.4273,VALID,0,VALID,19.2709,VALID,31,VALID,0.516016,
2009-12-15, 01:10:04,VALID,919.478,VALID,0,VALID,97.4196,VALID,0,VALID,19.2918,VALID,31,VALID,0.306641,
2009-12-15, 01:11:04,VALID,919.46,VALID,0,VALID,97.4273,VALID,0,VALID,19.2709,VALID,31,VALID,0.430078,
2009-12-15, 01:12:04,VALID,919.428,VALID,0.2,VALID,97.4196,VALID,0,VALID,19.2918,VALID,31,VALID,0.230469,
2009-12-15, 01:13:04,VALID,919.419,VALID,0,VALID,97.4349,VALID,0,VALID,19.2918,VALID,31,VALID,0.459375,
2009-12-15, 01:14:04,VALID,919.41,VALID,0,VALID,97.4196,VALID,0,VALID,19.2918,VALID,31,VALID,0.336328,
2009-12-15, 01:15:04,VALID,919.376,VALID,0,VALID,97.4349,VALID,0,VALID,19.2918,VALID,31,VALID,0.505469,
2009-12-15, 01:16:04,VALID,919.355,VALID,0,VALID,97.4196,VALID,0,VALID,19.2709,VALID,31,VALID,0.661328,
2009-12-15, 01:17:04,VALID,919.363,VALID,0,VALID,97.4196,VALID,0,VALID,19.2709,VALID,31,VALID,0.524609,
2009-12-15, 01:18:04,VALID,919.336,VALID,0,VALID,97.4425,VALID,0,VALID,19.2723,VALID,31,VALID,0.494531,
2009-12-15, 01:19:04,VALID,919.323,VALID,0,VALID,97.4501,VALID,0,VALID,19.2514,VALID,31,VALID,0.580078,
2009-12-15, 01:20:04,VALID,919.282,VALID,0,VALID,97.473,VALID,0,VALID,19.2918,VALID,31,VALID,0.192969,
2009-12-15, 01:21:04,VALID,919.289,VALID,0,VALID,97.4654,VALID,0,VALID,19.2918,VALID,31,VALID,0.271094,
2009-12-15, 01:22:04,VALID,919.246,VALID,0,VALID,97.4501,VALID,0,VALID,19.2918,VALID,31,VALID,0.545313,
2009-12-15, 01:23:04,VALID,919.248,VALID,0,VALID,97.473,VALID,0,VALID,19.2918,VALID,31,VALID,0.569531,
2009-12-15, 01:24:04,VALID,919.206,VALID,0,VALID,97.4959,VALID,0.107441,VALID,19.3113,VALID,31,VALID,0.247266,
2009-12-15, 01:25:04,VALID,919.199,VALID,0,VALID,97.4654,VALID,0,VALID,19.2918,VALID,50,VALID,0.801172,
2009-12-15, 01:26:04,VALID,919.171,VALID,0,VALID,97.4577,VALID,0,VALID,19.2709,VALID,68,VALID,0.409375,
2009-12-15, 01:27:04,VALID,919.17,VALID,0,VALID,97.4577,VALID,0,VALID,19.2723,VALID,68,VALID,0.386719,
2009-12-15, 01:28:04,VALID,919.176,VALID,0,VALID,97.4577,VALID,0,VALID,19.2514,VALID,68,VALID,0.505859,
2009-12-15, 01:29:04,VALID,919.15,VALID,0,VALID,97.4654,VALID,0,VALID,19.2723,VALID,68,VALID,1.07227,
2009-12-15, 01:30:04,VALID,919.17,VALID,0,VALID,97.473,VALID,0.107441,VALID,19.2319,VALID,139,VALID,0.866797,
2009-12-15, 01:31:04,VALID,919.143,VALID,0,VALID,97.473,VALID,0,VALID,19.2319,VALID,140,VALID,1.0418,
2009-12-15, 01:32:04,VALID,919.135,VALID,0,VALID,97.473,VALID,0,VALID,19.2124,VALID,140,VALID,0.707812,
2009-12-15, 01:33:04,VALID,919.138,VALID,0,VALID,97.4577,VALID,0.107441,VALID,19.2124,VALID,140,VALID,1.40508,
2009-12-15, 01:34:04,VALID,919.134,VALID,0,VALID,97.4806,VALID,0,VALID,19.2124,VALID,140,VALID,1.1457,
2009-12-15, 01:35:04,VALID,919.114,VALID,0,VALID,97.4882,VALID,0,VALID,19.2139,VALID,140,VALID,0.825391,
2009-12-15, 01:36:04,VALID,919.121,VALID,0,VALID,97.473,VALID,0,VALID,19.1944,VALID,135,VALID,1.13711,
2009-12-15, 01:37:04,VALID,919.14,VALID,0,VALID,97.4882,VALID,0,VALID,19.1944,VALID,118,VALID,1.24961,
2009-12-15, 01:38:04,VALID,919.117,VALID,0,VALID,97.5111,VALID,0,VALID,19.1944,VALID,137,VALID,1.25898,
2009-12-15, 01:39:04,VALID,919.129,VALID,0.2,VALID,97.5111,VALID,0,VALID,19.1539,VALID,138,VALID,0.930469,
2009-12-15, 01:40:04,VALID,919.128,VALID,0,VALID,97.534,VALID,0,VALID,19.1944,VALID,139,VALID,0.929688,
2009-12-15, 01:41:04,VALID,919.117,VALID,0,VALID,97.534,VALID,0,VALID,19.1929,VALID,141,VALID,1.34063,
2009-12-15, 01:42:04,VALID,919.101,VALID,0,VALID,97.5416,VALID,0,VALID,19.2139,VALID,154,VALID,1.21836,
2009-12-15, 01:43:04,VALID,919.092,VALID,0,VALID,97.5492,VALID,0,VALID,19.2334,VALID,123,VALID,1.11641,
2009-12-15, 01:44:04,VALID,919.098,VALID,0,VALID,97.5645,VALID,0,VALID,19.2334,VALID,158,VALID,1.38633,
2009-12-15, 01:45:04,VALID,919.117,VALID,0,VALID,97.5492,VALID,0,VALID,19.2139,VALID,118,VALID,0.805078,
2009-12-15, 01:46:04,VALID,919.111,VALID,0,VALID,97.5645,VALID,0,VALID,19.2139,VALID,106,VALID,0.526953,
2009-12-15, 01:47:04,VALID,919.132,VALID,0,VALID,97.5645,VALID,0,VALID,19.2124,VALID,153,VALID,0.966016,
2009-12-15, 01:48:04,VALID,919.107,VALID,0,VALID,97.5873,VALID,0,VALID,19.2319,VALID,133,VALID,1.03359,
2009-12-15, 01:49:04,VALID,919.156,VALID,0,VALID,97.5721,VALID,0,VALID,19.2334,VALID,123,VALID,0.480859,
2009-12-15, 01:50:04,VALID,919.108,VALID,0,VALID,97.5873,VALID,0,VALID,19.2528,VALID,123,VALID,0.555078,
2009-12-15, 01:51:04,VALID,919.135,VALID,0,VALID,97.5873,VALID,0,VALID,19.2319,VALID,123,VALID,0.657422,
2009-12-15, 01:52:04,VALID,919.138,VALID,0,VALID,97.5721,VALID,0,VALID,19.2334,VALID,161,VALID,0.589844,
2009-12-15, 01:53:04,VALID,919.13,VALID,0,VALID,97.5569,VALID,0,VALID,19.2139,VALID,144,VALID,1.24141,
2009-12-15, 01:54:04,VALID,919.098,VALID,0,VALID,97.5645,VALID,0,VALID,19.2348,VALID,165,VALID,0.953125,
2009-12-15, 01:55:04,VALID,919.083,VALID,0.2,VALID,97.5721,VALID,0,VALID,19.2124,VALID,166,VALID,1.42227,
2009-12-15, 01:56:04,VALID,919.104,VALID,0,VALID,97.5721,VALID,0,VALID,19.2139,VALID,166,VALID,0.888672,
2009-12-15, 01:57:04,VALID,919.072,VALID,0,VALID,97.5721,VALID,0,VALID,19.2334,VALID,166,VALID,1.15547,
2009-12-15, 01:58:04,VALID,919.057,VALID,0,VALID,97.595,VALID,0,VALID,19.2124,VALID,157,VALID,1.05547,
2009-12-15, 01:59:04,VALID,919.052,VALID,0,VALID,97.595,VALID,0,VALID,19.2334,VALID,135,VALID,1.3043,
2009-12-15, 02:00:04,VALID,919.026,VALID,0,VALID,97.6102,VALID,0,VALID,19.2139,VALID,136,VALID,1.18516,
2009-12-15, 02:01:04,VALID,919.013,VALID,0,VALID,97.6102,VALID,0,VALID,19.2334,VALID,127,VALID,1.12656,
2009-12-15, 02:02:04,VALID,918.979,VALID,0.2,VALID,97.6102,VALID,0,VALID,19.2139,VALID,141,VALID,1.49063,
2009-12-15, 02:03:04,VALID,919.006,VALID,0,VALID,97.6026,VALID,0,VALID,19.1929,VALID,134,VALID,1.33398,
2009-12-15, 02:04:05,VALID,918.977,VALID,0,VALID,97.5873,VALID,0,VALID,19.2139,VALID,123,VALID,1.33516,
2009-12-15, 02:05:05,VALID,918.991,VALID,0,VALID,97.6026,VALID,0,VALID,19.2139,VALID,126,VALID,1.45977,
2009-12-15, 02:06:05,VALID,918.982,VALID,0,VALID,97.5873,VALID,0,VALID,19.1734,VALID,123,VALID,1.30469,
2009-12-15, 02:07:05,VALID,918.953,VALID,0.2,VALID,97.6026,VALID,0,VALID,19.1944,VALID,128,VALID,1.56289,
2009-12-15, 02:08:05,VALID,918.952,VALID,0,VALID,97.5797,VALID,0,VALID,19.1734,VALID,129,VALID,1.36328,
2009-12-15, 02:09:05,VALID,918.906,VALID,0,VALID,97.5721,VALID,0,VALID,19.1749,VALID,128,VALID,1.18086,
2009-12-15, 02:10:05,VALID,918.912,VALID,0.2,VALID,97.5873,VALID,0,VALID,19.1554,VALID,125,VALID,1.00625,
2009-12-15, 02:11:05,VALID,918.895,VALID,0,VALID,97.5721,VALID,0,VALID,19.1554,VALID,118,VALID,1.82461,
2009-12-15, 02:12:05,VALID,918.889,VALID,0,VALID,97.5873,VALID,0,VALID,19.1554,VALID,143,VALID,1.55938,
2009-12-15, 02:13:05,VALID,918.89,VALID,0,VALID,97.5721,VALID,0,VALID,19.1344,VALID,126,VALID,0.951563,
2009-12-15, 02:14:05,VALID,918.883,VALID,0.2,VALID,97.5797,VALID,0,VALID,19.1554,VALID,121,VALID,1.20273,
2009-12-15, 02:15:05,VALID,918.84,VALID,0,VALID,97.5797,VALID,0,VALID,19.1749,VALID,143,VALID,1.18633,
2009-12-15, 02:16:05,VALID,918.861,VALID,0,VALID,97.5873,VALID,0,VALID,19.1554,VALID,154,VALID,1.25977,
2009-12-15, 02:17:05,VALID,918.827,VALID,0,VALID,97.5492,VALID,0,VALID,19.1359,VALID,148,VALID,1.41016,
2009-12-15, 02:18:05,VALID,918.835,VALID,0,VALID,97.5721,VALID,0,VALID,19.1554,VALID,165,VALID,0.819922,
2009-12-15, 02:19:05,VALID,918.826,VALID,0.2,VALID,97.5492,VALID,0,VALID,19.1344,VALID,189,VALID,0.861328,
2009-12-15, 02:20:05,VALID,918.819,VALID,0,VALID,97.5492,VALID,0,VALID,19.1554,VALID,189,VALID,1.24805,
2009-12-15, 02:21:05,VALID,918.8,VALID,0,VALID,97.5264,VALID,0,VALID,19.1344,VALID,168,VALID,1.45547,
2009-12-15, 02:22:05,VALID,918.796,VALID,0,VALID,97.5187,VALID,0,VALID,19.1359,VALID,159,VALID,1.49609,
2009-12-15, 02:23:05,VALID,918.768,VALID,0,VALID,97.5264,VALID,0,VALID,19.1164,VALID,110,VALID,0.821875,
2009-12-15, 02:24:05,VALID,918.746,VALID,0.2,VALID,97.4882,VALID,0,VALID,19.0954,VALID,158,VALID,1.18203,
2009-12-15, 02:25:05,VALID,918.703,VALID,0,VALID,97.4501,VALID,0,VALID,19.0969,VALID,146,VALID,1.61016,
2009-12-15, 02:26:05,VALID,918.673,VALID,0,VALID,97.4196,VALID,0,VALID,19.0969,VALID,162,VALID,1.18945,
2009-12-15, 02:27:05,VALID,918.688,VALID,0,VALID,97.4501,VALID,0,VALID,19.0759,VALID,149,VALID,1.28203,
2009-12-15, 02:28:05,VALID,918.644,VALID,0,VALID,97.4425,VALID,0,VALID,19.1164,VALID,133,VALID,1.13164,
2009-12-15, 02:29:05,VALID,918.65,VALID,0,VALID,97.4273,VALID,0,VALID,19.0969,VALID,159,VALID,1.30898,
2009-12-15, 02:30:05,VALID,918.601,VALID,0,VALID,97.3663,VALID,0,VALID,19.0774,VALID,124,VALID,1.18086,
2009-12-15, 02:31:05,VALID,918.606,VALID,0.2,VALID,97.3891,VALID,0,VALID,19.0579,VALID,165,VALID,1.41914,
2009-12-15, 02:32:05,VALID,918.557,VALID,0,VALID,97.3586,VALID,0,VALID,19.0384,VALID,126,VALID,1.09883,
2009-12-15, 02:33:05,VALID,918.542,VALID,0,VALID,97.3586,VALID,0,VALID,19.0384,VALID,175,VALID,0.96875,
2009-12-15, 02:34:05,VALID,918.515,VALID,0,VALID,97.3358,VALID,0,VALID,19.0369,VALID,140,VALID,0.816406,
2009-12-15, 02:35:05,VALID,918.47,VALID,0,VALID,97.2977,VALID,0,VALID,19.0579,VALID,152,VALID,1.06602,
2009-12-15, 02:36:05,VALID,918.456,VALID,0,VALID,97.29,VALID,0,VALID,19.0384,VALID,158,VALID,1.4707,
2009-12-15, 02:37:05,VALID,918.425,VALID,0,VALID,97.2443,VALID,0,VALID,19.0384,VALID,141,VALID,1.82578,
2009-12-15, 02:38:05,VALID,918.406,VALID,0.2,VALID,97.2214,VALID,0,VALID,19.0579,VALID,159,VALID,1.33398,
2009-12-15, 02:39:05,VALID,918.365,VALID,0,VALID,97.229,VALID,0,VALID,19.0369,VALID,162,VALID,0.707422,
2009-12-15, 02:40:05,VALID,918.369,VALID,0,VALID,97.2214,VALID,0,VALID,19.0579,VALID,142,VALID,1.11133,
2009-12-15, 02:41:05,VALID,918.353,VALID,0,VALID,97.1604,VALID,0,VALID,19.0384,VALID,129,VALID,1.95742,
2009-12-15, 02:42:05,VALID,918.311,VALID,0,VALID,97.1299,VALID,0,VALID,19.0384,VALID,138,VALID,1.61367,
2009-12-15, 02:43:05,VALID,918.259,VALID,0,VALID,97.1071,VALID,0,VALID,19.0384,VALID,143,VALID,1.50352,
2009-12-15, 02:44:05,VALID,918.236,VALID,0,VALID,97.0918,VALID,0,VALID,19.0384,VALID,151,VALID,1.15781,
2009-12-15, 02:45:05,VALID,918.235,VALID,0,VALID,97.0461,VALID,0,VALID,19.0384,VALID,151,VALID,1.35,
2009-12-15, 02:46:05,VALID,918.206,VALID,0.2,VALID,97.0537,VALID,0,VALID,18.998,VALID,163,VALID,0.872266,
2009-12-15, 02:47:05,VALID,918.166,VALID,0,VALID,97.008,VALID,0,VALID,18.9994,VALID,148,VALID,1.3,
2009-12-15, 02:48:05,VALID,918.127,VALID,0,VALID,96.9317,VALID,0,VALID,18.9994,VALID,147,VALID,1.91875,
2009-12-15, 02:49:05,VALID,918.076,VALID,0,VALID,96.9089,VALID,0,VALID,18.9994,VALID,134,VALID,1.48711,
2009-12-15, 02:50:05,VALID,918.075,VALID,0,VALID,96.8707,VALID,0,VALID,19.0189,VALID,119,VALID,1.24453,
2009-12-15, 02:51:05,VALID,918.069,VALID,0,VALID,96.8479,VALID,0,VALID,18.998,VALID,142,VALID,1.78945,
2009-12-15, 02:52:05,VALID,918.062,VALID,0,VALID,96.7488,VALID,0,VALID,18.998,VALID,135,VALID,2.20664,
2009-12-15, 02:53:05,VALID,918.055,VALID,0,VALID,96.703,VALID,0,VALID,19.0189,VALID,150,VALID,1.77383,
2009-12-15, 02:54:05,VALID,918.006,VALID,0,VALID,96.6497,VALID,0,VALID,19.0384,VALID,148,VALID,1.56289,
2009-12-15, 02:55:05,VALID,918.036,VALID,0,VALID,96.5887,VALID,0,VALID,19.0384,VALID,139,VALID,2.41406,
2009-12-15, 02:56:05,VALID,918.02,VALID,0,VALID,96.5582,VALID,0,VALID,19.0579,VALID,121,VALID,1.73008,
2009-12-15, 02:57:05,VALID,917.975,VALID,0,VALID,96.5353,VALID,0,VALID,19.0579,VALID,117,VALID,1.50156,
2009-12-15, 02:58:05,VALID,917.981,VALID,0,VALID,96.4972,VALID,0,VALID,19.0579,VALID,149,VALID,1.88828,
2009-12-15, 02:59:05,VALID,917.966,VALID,0,VALID,96.4972,VALID,0,VALID,19.0579,VALID,147,VALID,0.783203,
2009-12-15, 03:00:05,VALID,917.984,VALID,0,VALID,96.4972,VALID,0,VALID,19.0579,VALID,154,VALID,0.776172,
2009-12-15, 03:01:05,VALID,917.962,VALID,0.2,VALID,96.4515,VALID,0,VALID,19.0384,VALID,142,VALID,0.928906,
2009-12-15, 03:02:05,VALID,917.951,VALID,0,VALID,96.4743,VALID,0,VALID,19.0384,VALID,127,VALID,1.30781,
2009-12-15, 03:03:05,VALID,917.942,VALID,0,VALID,96.4819,VALID,0,VALID,19.0774,VALID,139,VALID,0.391406,
2009-12-15, 03:04:05,VALID,917.925,VALID,0,VALID,96.4438,VALID,0,VALID,19.0579,VALID,122,VALID,1.43672,
2009-12-15, 03:05:05,VALID,917.91,VALID,0,VALID,96.4286,VALID,0,VALID,19.0774,VALID,113,VALID,1.22734,
2009-12-15, 03:06:05,VALID,917.906,VALID,0,VALID,96.421,VALID,0,VALID,19.0579,VALID,98,VALID,1.09375,
2009-12-15, 03:07:05,VALID,917.89,VALID,0,VALID,96.4133,VALID,0,VALID,19.0774,VALID,98,VALID,0.763672,
2009-12-15, 03:08:05,VALID,917.89,VALID,0,VALID,96.4286,VALID,0,VALID,19.0774,VALID,129,VALID,1.21563,
2009-12-15, 03:09:05,VALID,917.88,VALID,0,VALID,96.3981,VALID,0,VALID,19.0774,VALID,149,VALID,0.764453,
2009-12-15, 03:10:05,VALID,917.864,VALID,0,VALID,96.4133,VALID,0,VALID,19.0774,VALID,147,VALID,1.16133,
2009-12-15, 03:11:05,VALID,917.84,VALID,0,VALID,96.421,VALID,0,VALID,19.0774,VALID,121,VALID,1.47812,
2009-12-15, 03:12:05,VALID,917.833,VALID,0,VALID,96.3905,VALID,0,VALID,19.0774,VALID,109,VALID,1.20898,
2009-12-15, 03:13:05,VALID,917.813,VALID,0,VALID,96.3676,VALID,0,VALID,19.0774,VALID,121,VALID,1.35898,
2009-12-15, 03:14:05,VALID,917.811,VALID,0,VALID,96.3676,VALID,0,VALID,19.0774,VALID,127,VALID,1.1168,
2009-12-15, 03:15:05,VALID,917.788,VALID,0,VALID,96.3981,VALID,0,VALID,19.0564,VALID,127,VALID,0.815234,
2009-12-15, 03:16:05,VALID,917.798,VALID,0,VALID,96.421,VALID,0.107441,VALID,19.0759,VALID,129,VALID,1.16406,
2009-12-15, 03:17:05,VALID,917.803,VALID,0,VALID,96.4362,VALID,0.107441,VALID,19.0564,VALID,129,VALID,0.823047,
2009-12-15, 03:18:05,VALID,917.801,VALID,0,VALID,96.4286,VALID,0.107441,VALID,19.0564,VALID,141,VALID,0.556641,
2009-12-15, 03:19:05,VALID,917.774,VALID,0,VALID,96.3676,VALID,0.107441,VALID,19.0564,VALID,110,VALID,2.07656,
2009-12-15, 03:20:05,VALID,917.783,VALID,0,VALID,96.2228,VALID,0.107441,VALID,19.0954,VALID,139,VALID,1.84844,
2009-12-15, 03:21:05,VALID,917.793,VALID,0,VALID,96.0932,VALID,0.107441,VALID,19.1344,VALID,104,VALID,1.48555,
2009-12-15, 03:22:05,VALID,917.755,VALID,0,VALID,95.9864,VALID,0.107441,VALID,19.1344,VALID,92,VALID,1.07773,
2009-12-15, 03:23:05,VALID,917.76,VALID,0,VALID,95.895,VALID,0.107441,VALID,19.1554,VALID,130,VALID,1.00664,
2009-12-15, 03:24:05,VALID,917.74,VALID,0,VALID,95.8263,VALID,0.107441,VALID,19.1539,VALID,141,VALID,1.96406,
2009-12-15, 03:25:05,VALID,917.766,VALID,0,VALID,95.4528,VALID,0.107441,VALID,19.1734,VALID,119,VALID,1.69766,
2009-12-15, 03:26:05,VALID,917.753,VALID,0,VALID,95.2698,VALID,0.107441,VALID,19.2514,VALID,105,VALID,1.11094,
2009-12-15, 03:27:05,VALID,917.727,VALID,0,VALID,95.3232,VALID,0.107441,VALID,19.2514,VALID,104,VALID,0.896094,
2009-12-15, 03:28:05,VALID,917.698,VALID,0,VALID,95.3308,VALID,0.107441,VALID,19.2124,VALID,106,VALID,1.11953,
2009-12-15, 03:29:05,VALID,917.679,VALID,0,VALID,95.3156,VALID,0.107441,VALID,19.2124,VALID,149,VALID,1.59141,
2009-12-15, 03:30:05,VALID,917.683,VALID,0,VALID,95.3232,VALID,0,VALID,19.2124,VALID,169,VALID,1.27148,
2009-12-15, 03:31:05,VALID,917.657,VALID,0,VALID,95.2698,VALID,0.107441,VALID,19.2124,VALID,142,VALID,2.08516,
2009-12-15, 03:32:05,VALID,917.641,VALID,0,VALID,95.3079,VALID,0,VALID,19.2124,VALID,144,VALID,1.78359,
2009-12-15, 03:33:05,VALID,917.633,VALID,0,VALID,95.3994,VALID,0.107441,VALID,19.1929,VALID,119,VALID,0.987109,
2009-12-15, 03:34:05,VALID,917.636,VALID,0,VALID,95.2088,VALID,0.107441,VALID,19.1929,VALID,143,VALID,2.31602,
2009-12-15, 03:35:05,VALID,917.653,VALID,0,VALID,95.2393,VALID,0.107441,VALID,19.2124,VALID,137,VALID,1.72852,
2009-12-15, 03:36:05,VALID,917.65,VALID,0,VALID,95.3003,VALID,0.107441,VALID,19.1929,VALID,145,VALID,0.9875,
2009-12-15, 03:37:05,VALID,917.645,VALID,0,VALID,95.3842,VALID,0.107441,VALID,19.1539,VALID,136,VALID,0.83125,
2009-12-15, 03:38:05,VALID,917.653,VALID,0,VALID,95.3994,VALID,0.107441,VALID,19.1539,VALID,111,VALID,1.31875,
2009-12-15, 03:39:05,VALID,917.633,VALID,0,VALID,95.3689,VALID,0.107441,VALID,19.1539,VALID,103,VALID,1.10117,
2009-12-15, 03:40:05,VALID,917.649,VALID,0,VALID,95.4299,VALID,0,VALID,19.1344,VALID,113,VALID,0.639063,
2009-12-15, 03:41:05,VALID,917.616,VALID,0,VALID,95.1936,VALID,0.107441,VALID,19.1344,VALID,121,VALID,1.77852,
2009-12-15, 03:42:05,VALID,917.652,VALID,0,VALID,95.1555,VALID,0.107441,VALID,19.1734,VALID,114,VALID,1.42344,
2009-12-15, 03:43:05,VALID,917.662,VALID,0,VALID,95.1402,VALID,0.107441,VALID,19.1525,VALID,121,VALID,1.31172,
2009-12-15, 03:44:05,VALID,917.668,VALID,0,VALID,95.2393,VALID,0.107441,VALID,19.1734,VALID,120,VALID,0.639844,